"Pseudo-MPEC" for CEJLHP2

Created 2026 Apr 17 11:35:12 UT using Find_Orb

Click here for an explanation of pseudo-MPECs

 
 Astrometry: 
     CEJLHP2*1C2026 04 17.22099311 24 25.924+32 59 39.95   ~4H65 20.73GVNEOCPG96
     CEJLHP2 1C2026 04 17.22776211 24 33.340+32 59 29.00   ~4H65 21.91GVNEOCPG96
     CEJLHP2 1C2026 04 17.23296411 24 39.020+32 59 21.19   ~4H65 21.13GVNEOCPG96
     CEJLHP2 1C2026 04 17.23817211 24 44.762+32 59 12.55   ~4H65 21.26GVNEOCPG96
     CEJLHP2 1C2026 04 17.30625911 25 59.624+32 57 15.23   ~4H85 21.28GVNEOCPI52
     CEJLHP2 1C2026 04 17.31081811 26 04.632+32 57 07.16   ~4H85 21.61GVNEOCPI52
     CEJLHP2 1C2026 04 17.31491011 26 09.157+32 56 59.39   ~4H85 21.60GVNEOCPI52
     CEJLHP2 1C2026 04 17.31773111 26 12.296+32 56 53.48   ~4H85 21.40GVNEOCPI52

Station data:
(G96) Mt. Lemmon Survey  (N32.442729 W110.788720)  US/Arizona.  Observer E.
   J. Christensen. Measurers T. Beuden, V. F. Carvajal, D. Fay, J. B.
   Fazekas, D. C. Fuls, A. R. Gibbs, A. D. Grauer, H. Gröller, J. K. Hogan,
   R. A. Kowalski, S. M. Larson, G. J. Leonard, D. Rankin, R. L. Seaman, F.
   C. Shelly, K. W. Wierzchoś. 1.5-m reflector + 10K CCD.
(I52) Steward Observatory, Mt. Lemmon Station  (N32.442570 W110.788920)
   US/Arizona. Measurers T. Beuden, V. F. Carvajal, D. Fay, J. B. Fazekas, D.
   C. Fuls, A. R. Gibbs, A. D. Grauer, H. Gröller, J. K. Hogan, R. A.
   Kowalski, S. M. Larson, G. J. Leonard, D. Rankin, R. L. Seaman, F. C.
   Shelly, K. W. Wierzchoś. 1.0-m prime focus + CCD.

Orbital elements:  CEJLHP2
   Perihelion 2026 Mar 10.363519 +/- 22.5 TT =  8:43:28.0 (JD 2461109.863519)
Epoch 2026 Apr 17.0 TT = JDT 2461147.5   Earth MOID: 0.0034      AutoNEOCP
M  20.525514983 +/- 22              (J2000 ecliptic)
n   0.545362226 +/- 0.291           Peri.  328.485843 +/- 39
a   1.483699714 +/- 0.528           Node   192.852851 +/- 12
e   0.34883285 +/- 0.187            Incl.    7.122960 +/- 3.2
P   1.807/660.099d         H 25.80  G  0.15   U 11.9  SR
q 0.966136500 +/- 0.0893    Q 2.001262928 +/- 2.18
From 8 observations 2026 Apr. 17 (2.3 hr); mean residual 0".26
Residuals in arcseconds: 
260417 G96  .42+  .03+    260417 G96  .16-  .03-    260417 I52  .03-  .14+    
260417 G96  .08+  .26-    260417 I52  .02-  .08+    260417 I52  .32+  .55-    
260417 G96  .40-  .22+    260417 I52  .21-  .36+    

Ephemerides (geocentric):
Date (UTC) HH   RA             Dec           delta  r     elong  mag " sig PA
---- --------  ------------   ------------  ------ ------ -----  --- --------
2026 04 17 12  11 29 46.524   +32 52 04.92  .05990 1.0407 126.6 21.7 67.9 100
2026 04 17 13  11 30 33.653   +32 50 53.34  .06001 1.0408 126.7 21.7 78.0  99
2026 04 17 14  11 31 20.603   +32 49 40.79  .06011 1.0410 126.8 21.7 89.1  98
2026 04 17 15  11 32 07.375   +32 48 27.30  .06022 1.0411 126.9 21.7  101  96
2026 04 17 16  11 32 53.968   +32 47 12.87  .06032 1.0413 127.0 21.7  115  95
2026 04 17 17  11 33 40.383   +32 45 57.51  .06043 1.0414 127.1 21.7  131  93
2026 04 17 18  11 34 26.619   +32 44 41.24  .06054 1.0416 127.2 21.7  148  91
2026 04 17 19  11 35 12.676   +32 43 24.07  .06065 1.0417 127.2 21.7  167  90
2026 04 17 20  11 35 58.555   +32 42 06.01  .06075 1.0419 127.3 21.7  188  89
2026 04 17 21  11 36 44.255   +32 40 47.08  .06086 1.0420 127.4 21.7  211  88
2026 04 17 22  11 37 29.776   +32 39 27.28  .06097 1.0422 127.5 21.7  236  87
2026 04 17 23  11 38 15.119   +32 38 06.63  .06108 1.0423 127.6 21.7  262  86
2026 04 18 00  11 39 00.284   +32 36 45.13  .06119 1.0425 127.7 21.7  291  85
2026 04 18 01  11 39 45.270   +32 35 22.81  .06131 1.0427 127.8 21.7  321  84
2026 04 18 02  11 40 30.078   +32 33 59.68  .06142 1.0428 127.8 21.7  354  84
2026 04 18 03  11 41 14.708   +32 32 35.73  .06153 1.0430 127.9 21.7  388  83
2026 04 18 04  11 41 59.160   +32 31 11.00  .06164 1.0431 128.0 21.7  424  83
2026 04 18 05  11 42 43.433   +32 29 45.48  .06175 1.0433 128.1 21.7  461  82
2026 04 18 06  11 43 27.529   +32 28 19.19  .06187 1.0434 128.2 21.7  501  82
2026 04 18 07  11 44 11.448   +32 26 52.14  .06198 1.0436 128.3 21.7  542  82
2026 04 18 08  11 44 55.189   +32 25 24.34  .06210 1.0437 128.3 21.7  585  81
2026 04 18 09  11 45 38.753   +32 23 55.81  .06221 1.0439 128.4 21.7  630  81
2026 04 18 10  11 46 22.140   +32 22 26.55  .06233 1.0440 128.5 21.7  676  81
2026 04 18 11  11 47 05.350   +32 20 56.58  .06244 1.0442 128.6 21.7  724  81
2026 04 18 12  11 47 48.384   +32 19 25.90  .06256 1.0443 128.7 21.7  773  81
2026 04 18 13  11 48 31.241   +32 17 54.53  .06268 1.0445 128.7 21.7  824  80
2026 04 18 14  11 49 13.922   +32 16 22.48  .06279 1.0446 128.8 21.7  877  80
2026 04 18 15  11 49 56.427   +32 14 49.76  .06291 1.0448 128.9 21.7  931  80
2026 04 18 16  11 50 38.757   +32 13 16.38  .06303 1.0450 129.0 21.7  987  80
2026 04 18 17  11 51 20.912   +32 11 42.35  .06315 1.0451 129.1 21.7 1044  80
2026 04 18 18  11 52 02.892   +32 10 07.68  .06327 1.0453 129.1 21.7 1103  80
2026 04 18 19  11 52 44.697   +32 08 32.38  .06338 1.0454 129.2 21.7 1163  79
2026 04 18 20  11 53 26.327   +32 06 56.46  .06350 1.0456 129.3 21.7 1225  79
2026 04 18 21  11 54 07.784   +32 05 19.93  .06362 1.0457 129.4 21.7 1289  79
2026 04 18 22  11 54 49.067   +32 03 42.81  .06375 1.0459 129.4 21.7 1353  79
2026 04 18 23  11 55 30.177   +32 02 05.10  .06387 1.0460 129.5 21.7 1419  79
2026 04 19 00  11 56 11.114   +32 00 26.81  .06399 1.0462 129.6 21.7 1487  79
2026 04 19 01  11 56 51.878   +31 58 47.95  .06411 1.0464 129.7 21.7 1556  79
2026 04 19 02  11 57 32.470   +31 57 08.53  .06423 1.0465 129.7 21.7 1626  79
2026 04 19 03  11 58 12.891   +31 55 28.57  .06436 1.0467 129.8 21.7 1698  79
2026 04 19 04  11 58 53.139   +31 53 48.07  .06448 1.0468 129.9 21.7 1771  78
2026 04 19 05  11 59 33.217   +31 52 07.03  .06460 1.0470 130.0 21.7 1846  78
2026 04 19 06  12 00 13.124   +31 50 25.48  .06473 1.0471 130.0 21.7 1921  78
2026 04 19 07  12 00 52.861   +31 48 43.42  .06485 1.0473 130.1 21.7 1998  78
2026 04 19 08  12 01 32.428   +31 47 00.85  .06498 1.0474 130.2 21.7 2077  78
2026 04 19 09  12 02 11.826   +31 45 17.80  .06510 1.0476 130.3 21.7 2156  78
2026 04 19 10  12 02 51.055   +31 43 34.26  .06523 1.0478 130.3 21.7 2237  78
2026 04 19 11  12 03 30.116   +31 41 50.25  .06535 1.0479 130.4 21.8 2319  78